Big Piney, WY

4:44 AM MST on December 03, 2016 (GMT -0700)
Big Piney-Marbleton

Weather History for KBPI - April, 2013

Change the Weather History Date:

Friday, April 19, 2013

  Actual Average Record
Temperature  
Mean Temperature 33 °F 38 °F  
Max Temperature 47 °F 54 °F 70 °F (1994)
Min Temperature 18 °F 23 °F 12 °F (2006)
Degree Days  
Heating Degree Days 32 27  
Month to date heating degree days 616 557  
Since 1 July heating degree days 8598 9252  
Cooling Degree Days 0 0  
Month to date cooling degree days 0 0  
Year to date cooling degree days 0 0  
Moisture  
Dew Point 20 °F    
Average Humidity 60    
Maximum Humidity 82    
Minimum Humidity 37    
Precipitation  
Precipitation 0.00 in 0.02 in 0.38 in (2016)
Month to date precipitation 0.16 0.30  
Year to date precipitation 0.35 1.40  
Sea Level Pressure  
Sea Level Pressure 30.06 in    
Wind  
Wind Speed 6 mph (West)    
Max Wind Speed 17 mph    
Max Gust Speed 23 mph    
Visibility 10 miles    
Events      
T = Trace of Precipitation, MM = Missing Value Source: NWS Daily Summary

Daily Weather History Graph

Daily Weather History Graph

Search for Another Location

Airport or City:

Trip Planner

Search our weather history database for the weather conditions in past years. The results will help you decide how hot, cold, wet, or windy it might be!

Date:

Astronomy

Apr. 19, 2013 Rise Set
Actual Time 6:32 AM MDT 8:07 PM MDT
Civil Twilight 6:02 AM MDT 8:37 PM MDT
Nautical Twilight 5:26 AM MDT 9:13 PM MDT
Astronomical Twilight 4:48 AM MDT 9:51 PM MDT
Moon 1:47 PM MDT (4/19) 2:58 AM MDT (4/19)
Length of Visible Light 14h 34m
Length of Day
13h 35m
Waxing Gibbous, 62% of the Moon is Illuminated
Apr 19
Waxing Gibbous
Apr 25
Full
May 2
Last Quarter
May 9
New
May 17
First Quarter

Hourly Weather History & Observations

Time (MDT) Temp. Windchill Dew Point Humidity Pressure Visibility Wind Dir Wind Speed Gust Speed Precip Events Conditions
12:53 AM 21.0 °F 14.6 °F 14.0 °F 74% 30.23 in 10.0 mi North 4.6 mph - N/A   Clear
1:53 AM 21.9 °F 17.2 °F 12.9 °F 68% 30.21 in 10.0 mi NNW 3.5 mph - N/A   Clear
2:53 AM 19.9 °F 14.9 °F 12.9 °F 74% 30.19 in 10.0 mi NE 3.5 mph - N/A   Clear
3:53 AM 24.1 °F - 12.0 °F 60% 30.15 in 10.0 mi Calm Calm - N/A   Clear
4:53 AM 19.9 °F - 14.0 °F 78% 30.16 in 10.0 mi Calm Calm - N/A   Clear
5:53 AM 19.0 °F - 12.9 °F 77% 30.16 in 10.0 mi Calm Calm - N/A   Clear
6:53 AM 19.0 °F 9.0 °F 14.0 °F 81% 30.16 in 10.0 mi ENE 8.1 mph - N/A   Clear
7:53 AM 25.0 °F 20.7 °F 18.0 °F 75% 30.15 in 10.0 mi East 3.5 mph - N/A   Partly Cloudy
8:53 AM 28.9 °F 23.9 °F 16.0 °F 58% 30.16 in 10.0 mi East 4.6 mph - N/A   Partly Cloudy
9:53 AM 33.1 °F 28.7 °F 16.0 °F 50% 30.14 in 10.0 mi South 4.6 mph - N/A   Overcast
10:53 AM 36.0 °F 31.1 °F 18.0 °F 48% 30.10 in 10.0 mi SSW 5.8 mph - N/A   Overcast
11:53 AM 37.9 °F 32.1 °F 19.0 °F 47% 30.08 in 10.0 mi South 8.1 mph - N/A   Overcast
12:53 PM 39.9 °F - 19.9 °F 45% 30.06 in 10.0 mi Calm Calm - N/A   Overcast
1:53 PM 45.0 °F 39.7 °F 19.9 °F 37% 30.00 in 10.0 mi NW 10.4 mph 20.7 mph N/A   Overcast
2:53 PM 45.0 °F 38.5 °F 19.9 °F 37% 30.00 in 10.0 mi NW 13.8 mph 18.4 mph N/A   Overcast
3:53 PM 44.1 °F 38.1 °F 21.9 °F 42% 29.97 in 10.0 mi WNW 11.5 mph 18.4 mph N/A   Overcast
4:53 PM 43.0 °F 40.3 °F 24.1 °F 47% 29.98 in 10.0 mi Variable 4.6 mph - N/A   Overcast
5:53 PM 42.1 °F 36.1 °F 25.0 °F 51% 29.98 in 10.0 mi West 10.4 mph - N/A   Overcast
6:53 PM 41.0 °F 33.9 °F 26.1 °F 55% 29.99 in 10.0 mi West 12.7 mph - N/A   Mostly Cloudy
7:53 PM 37.9 °F 32.1 °F 27.0 °F 65% 29.95 in 10.0 mi West 8.1 mph - N/A   Mostly Cloudy
8:53 PM 37.0 °F 29.8 °F 28.0 °F 70% 29.95 in 10.0 mi West 10.4 mph - N/A   Overcast
9:53 PM 36.0 °F 29.6 °F 28.0 °F 73% 29.93 in 10.0 mi WSW 8.1 mph - N/A   Overcast
10:53 PM 33.1 °F 26.9 °F 28.0 °F 82% 29.92 in 10.0 mi SSW 6.9 mph - N/A   Partly Cloudy
11:53 PM 33.1 °F 28.7 °F 28.9 °F 85% 29.90 in 10.0 mi South 4.6 mph - N/A   Overcast